Simultaneous Nadir Overpasses (SNOs) Predictions

Prediction of SNOs between METOP-A and NOAA-19 Satellite Orbit:

Table of predicted SNOs for the next 14.0 days since TLE Epoch: 8/23/2014
Index Date (METOP-A) Time (METOP-A) Lat,Lon (METOP-A) SZA (METOP-A ) Date (NOAA-19) Time (NOAA-19) Lat,Lon (NOAA-19) SZA (NOAA-19 ) Distance(km) Time Diff (sec)
1 08/29/2014 13:26:01 74.41, -25.81 65.12 08/29/2014 13:24:48 74.44, -26.71 65.18 27.03 73
2 08/29/2014 14:16:47 -74.21, 141.00 115.06 08/29/2014 14:15:46 -74.23, 141.09 115.04 3.22 61
3 08/29/2014 15:07:27 74.20, -51.70 64.94 08/29/2014 15:06:47 74.22, -51.64 64.97 3.04 40
4 08/29/2014 15:58:09 -74.19, 115.62 115.05 08/29/2014 15:57:49 -74.20, 115.64 115.04 1.47 20
5 08/29/2014 16:48:49 74.18, -77.08 64.95 08/29/2014 16:48:50 74.20, -77.10 64.97 2.10 1
6
